Location: Observatoire
(46.1952°N, 5.3391°E)
Time: 13:19:17
(UTC+01:00)

Explorer 7 - Pass Details

Date: 22 February 2026
Orbit: 430 x 540 km, 50.2° (Epoch: 17 March)

Event Time Altitude Azimuth Distance (km) Brightness Sun altitude
Rises 15:48:14 0° 266° (W) 2,420 10.9 21.4°
Reaches altitude 10° 15:50:22 10° 272° (W) 1,565 10.0 21.1°
Maximum altitude 15:53:48 49° 349° (NNW) 593 7.0 20.6°
Drops below altitude 10° 15:57:22 10° 65° (ENE) 1,623 8.7 20.2°
Sets 15:59:37 0° 71° (ENE) 2,523 9.6 19.9°
